Terug naar catalogus

TIANQI 30

ActiefCommunicatieLEO
NORAD 61196·PAYLOAD·🇨🇳 China

Gelanceerd Sep 20, 2024 vanaf Xichang Satellite Launch Center

Loading…

Volgende Passages (komende 24 uur)

TLE

VersSource: Space-Track

Epoch: Sep 14, 2026, 21:44 UTC

1 61196U 24170B   26257.90621996  .00000018  00000-0  10190-3 0  9994
2 61196  44.8577  97.8042 0008511 161.8664 198.2471 13.97722175101601

Volg TIANQI 30 in realtime met AllMySat

Download on the App Store